Regional Weather Roundup
Issued by NWS

Home | Current Version | Previous Version | Text Only | Print | Product List | Glossary Off
Versions: 1 2 3 4 5 6 7 8 9 10 11 12 13 14 15 16 17 18 19 20 21 22 23 24 25 26 27 28 29 30 31 32 33 34 35 36 37 38 39 40 41 42 43 44 45 46 47 48 49 50

000
ASUS43 KMKX 301800
RWRWI

WISCONSIN REGIONAL WEATHER ROUNDUP
NATIONAL WEATHER SERVICE MILWAUKEE/SULLIVAN WI
100 PM CDT THU JUL 30 2015

NOTE: "FAIR" INDICATES FEW OR NO CLOUDS BELOW 12,000 FEET WITH NO
SIGNIFICANT WEATHER AND/OR OBSTRUCTIONS TO VISIBILITY.

WIZ001-002-006>008-014>016-023>028-301900-
NORTHWEST WISCONSIN

CITY           SKY/WX    TMP DP  RH WIND       PRES   REMARKS
SUPERIOR ARPT  MOSUNNY   79  59  50 W14G21    29.94S HX  80
ASHLAND        MOSUNNY   81  59  47 W12G25    29.94F HX  81
6HR MIN TEMP:  64; 6HR MAX TEMP:  81;

HAYWARD        PTSUNNY   79  55  43 W8G18     29.99S
6HR MIN TEMP:  61; 6HR MAX TEMP:  80;

SIREN          MOSUNNY   80  56  44 W14G26    30.01S HX  80
CUMBERLAND     MOSUNNY   77  55  47 W17G23    30.03R
RICE LAKE      MOSUNNY   78  58  50 W16       30.03S
CHETEK         MOSUNNY   79  60  50 MISG      30.02S HX  80
LADYSMITH      MOSUNNY   79  56  46 W14       30.02S HX  80
EAU CLAIRE     NOT AVBL
MENOMONIE      SUNNY     82  55  38 W15       30.03S HX  82
NEW RICHMOND   SUNNY     80  55  43 W14G22    30.04S HX  80
OSCEOLA        SUNNY     79  58  47 W17G28    30.06S HX  80
$$

WIZ003>005-009-010-017-018-301900-
NORTH CENTRAL WISCONSIN

CITY           SKY/WX    TMP DP  RH WIND       PRES   REMARKS
MANITOWISH WTR MOSUNNY   77  54  45 W22G31    29.97S
ARBOR VITAE    MOSUNNY   77  55  46 NW13G18   29.98R
WOODRUFF       MOSUNNY   77  55  46 NW13G18   29.98R
RHINELANDER    MOSUNNY   79  52  38 NW8       29.98S
6HR MIN TEMP:  63; 6HR MAX TEMP:  80;

EAGLE RIVER    MOSUNNY   78  46  32 NW16G28   29.96S
LAND O LAKES   MOSUNNY   77  45  31 W14G22    29.97R
PHILLIPS       MOSUNNY   77  55  46 W12G21    29.99S
TOMAHAWK       PTSUNNY   78  54  42 W15G22    29.99S
MEDFORD        MOSUNNY   78  59  52 W17G28    30.01S
MERRILL        NOT AVBL
$$

WIZ029-030-035-036-043>047-301900-
CENTRAL WISCONSIN

CITY           SKY/WX    TMP DP  RH WIND       PRES   REMARKS
WAUSAU         PTSUNNY   83  55  38 W21G30    29.97F HX  82
6HR MIN TEMP:  65; 6HR MAX TEMP:  84;

MOSINEE        NOT AVBL
MARSHFIELD     MOSUNNY   83  55  38 W12G22    30.01F HX  82
6HR MIN TEMP:  63; 6HR MAX TEMP:  83;

STEVENS POINT  MOSUNNY   80  57  45 W10G20    30.01S HX  80
WAUPACA        MOSUNNY   85  55  35 W16G23    29.99S HX  84
WAUTOMA        NOT AVBL
WISC RAPIDS    MOSUNNY   83  53  35 NW14G28   30.02F HX  82
6HR MIN TEMP:  65; 6HR MAX TEMP:  85;

CAMP DOUGLAS   NOT AVBL
$$

WIZ011>013-019>022-031-037>040-048>050-301900-
NORTHEAST WISCONSIN

CITY           SKY/WX    TMP DP  RH WIND       PRES   REMARKS
ANTIGO         MOSUNNY   79  55  43 NW20      29.99R HX  80
SHAWANO        MOSUNNY   83  55  37 NW12G23   29.95F HX  82
OCONTO         SUNNY     83  55  39 NW15G24   29.92S HX  82
STURGEON BAY   SUNNY     81  55  41 W16G23    29.94S HX  80
6HR MIN TEMP:  66; 6HR MAX TEMP:  81;

GREEN BAY      MOSUNNY   82  60  47 W15G24    29.95F HX  82
6HR MIN TEMP:  67; 6HR MAX TEMP:  84;

MANITOWOC      NOT AVBL
APPLETON       PTSUNNY   82  52  34 W17G29    29.99F HX  81
CLINTONVILLE   MOSUNNY   82  50  32 NW16G24   29.96F HX  81
OSHKOSH        MOSUNNY   84  56  38 W15G26    29.98F HX  83
6HR MIN TEMP:  68; 6HR MAX TEMP:  84;

$$

WIZ032>034-041-042-053>061-301900-
SOUTHWEST WISCONSIN

CITY           SKY/WX    TMP DP  RH WIND       PRES   REMARKS
LA CROSSE      SUNNY     86  56  35 W14G24    30.04F HX  85
6HR MIN TEMP:  68; 6HR MAX TEMP:  86;

SPARTA         SUNNY     84  52  33 W14G20    30.05S HX  82
VIROQUA        SUNNY     81  56  42 W12G20    30.08F HX  81
BOSCOBEL       SUNNY     88  55  32 W15G22    30.07S HX  86
6HR MIN TEMP:  63; 6HR MAX TEMP:  88;

PRAIRIE DU CHI SUNNY     85  50  29 W14       30.07S HX  83
PLATTEVILLE    SUNNY     83  57  41 W14G20    30.10S HX  82
$$

WIZ056-057-062-063-064-067-068-301900-
SOUTH CENTRAL WISCONSIN

CITY           SKY/WX    TMP DP  RH WIND       PRES   REMARKS
REEDSBURG      SUNNY     85  55  35 W14G23    30.05S HX  84
BARABOO/DELLS  SUNNY     85  49  28 W16G23    30.04F HX  82
LONE ROCK      NOT AVBL
MINERAL POINT  SUNNY     82  50  32 W9G21     30.09F HX  81
MADISON        MOSUNNY   84  56  38 NW13G21   30.04F HX  83
6HR MIN TEMP:  67; 6HR MAX TEMP:  84;

MIDDLETON      SUNNY     85  50  29 W17G23    30.06F HX  83
WATERTOWN      SUNNY     82  61  47 W13G18    30.03F HX  83
MONROE         SUNNY     82  54  36 W15       30.09S HX  81
JANESVILLE     MOSUNNY   86  54  32 W15G21    30.06S HX  84
$$

WIZ051-052-058>065-066-070>072-301900-
SOUTHEAST WISCONSIN

CITY           SKY/WX    TMP DP  RH WIND       PRES   REMARKS
MILWAUKEE      MOSUNNY   86  51  29 W18G30    30.02F HX  84
6HR MIN TEMP:  69; 6HR MAX TEMP:  86;

WAUKESHA       MOSUNNY   82  54  36 W17G29    30.04F HX  81
MILWAUKEE/TIMM NOT AVBL
RACINE         MOSUNNY   86  52  30 NW16G23   30.04F HX  84
6HR MIN TEMP:  66; 6HR MAX TEMP:  86;

BURLINGTON     SUNNY     83  55  37 W13G23    30.05S HX  82
KENOSHA        MOSUNNY   84  59  42 W15G24    30.04F HX  84
6HR MIN TEMP:  66; 6HR MAX TEMP:  84;

FOND DU LAC    MOSUNNY   85  58  39 W15G23    30.00S HX  84
6HR MIN TEMP:  66; 6HR MAX TEMP:  85;

SHEBOYGAN      MOSUNNY   83  58  42 W20G28    29.99S HX  83
6HR MIN TEMP:  68; 6HR MAX TEMP:  84;

WEST BEND      SUNNY     82  54  36 W16G23    30.01F HX  81
JUNEAU         SUNNY     80  59  48 W12G22    30.04S HX  81
$$

LSZ147-162-301900-
LAKE SUPERIOR

STATION/POSITION TIME  TEMP    WIND        PRES    WAVE
                       AIR SEA DIR/SP/G            HT/PER
                 (UTC) (F)     (DEG/KT/KT) (MB)    (FT/S)
W MID LAKE BUOY  1650   57 53  230/ 12/ 14 1011.9R   3/ 5
DEVILS ISLAND    1700   65     240/ 17/ 19 1013.2S
PORT WING        1700   75     250/ 10/ 15 1014.2R
SAXON HARBOR     1740   76                 1013.5S
$$

LMZ867-665-643>646-301900-
LAKE MICHIGAN

STATION/POSITION TIME  TEMP    WIND        PRES    WAVE
                       AIR SEA DIR/SP/G            HT/PER
                 (UTC) (F)     (DEG/KT/KT) (MB)    (FT/S)
CHAMBERS ISLAND  1700   78     240/  8/ 13 1012.2S
S GREEN BAY BUOY 1600   68 66  250/ 10/ 12 1014.8
N MID LAKE BUOY  1650   71 68  240/ 14/ 16 1011.2R   3/ 5
NORTHPORT PIER   1700   78     300/  8/ 19 1011.9S
SISTER BAY       1714   79     300/ 12/ 13   N/A
ALGOMA LAKESHORE 1712          320/ 12/ 22   N/A
KEWAUNEE LAKESHO 1700   80     270/ 13/ 19 1013.2F
SHEBOYGAN LAKESH 1700   80     300/ 16/ 21 1015.2F
PORT WASHINGTON  1700   84     300/ 10/ 17 1016.3S
ATWATER BUOY     1700   76 58  260/ 16/ 19 1017.7S
MILWAUKEE LAKESH 1700   81     280/ 16/ 25   N/A
KENOSHA   LAKESH 1700   82     290/ 15/ 22 1016.6S
$$

TC  - TEMPERATURE IN CELSIUS
VSB - VISIBILITY IN STATUTE MILES
WCI - WIND CHILL INDEX
HX  - HEAT INDEX




USA.gov is the U.S. government's official web portal to all federal, state and local government web resources and services.